Location: Sternwarte auf dem Internationalen Platz Vogelsang IP
(50.5721°N, 6.4398°E)
Time: 19:46:41
(UTC+01:00)

A-11 Canister half - Pass Details

Date: 20 December 2025
Orbit: 1511 x 1688 km, 47.2° (Epoch: 19 January)

Event Time Altitude Azimuth Distance (km) Brightness Sun altitude
Rises 14:37:55 0° 237° (WSW) 4,644 12.7 10.9°
Reaches altitude 10° 14:40:58 10° 234° (SW) 3,670 12.5 10.7°
Maximum altitude 14:49:56 59° 158° (SSE) 1,741 9.8 10.0°
Drops below altitude 10° 14:59:11 10° 82° (E) 3,776 10.7 9.2°
Sets 15:02:22 0° 79° (E) 4,786 11.2 8.9°
